Regional Weather Roundup
Issued by NWS

Home | Current Version | Previous Version | Text Only | Print | Product List | Glossary Off
Versions: 1 2 3 4 5 6 7 8 9 10 11 12 13 14 15 16 17 18 19 20 21 22 23 24 25 26 27 28 29 30 31 32 33 34 35 36 37 38 39 40 41 42 43 44 45 46 47 48 49 50

000
ASUS45 KTFX 121510
RWRMT
MONTANA REGIONAL WEATHER ROUNDUP
NATIONAL WEATHER SERVICE GREAT FALLS MT
800 AM MST FRI FEB 12 2016

NOTE: "FAIR" INDICATES FEW OR NO CLOUDS BELOW 12000 FEET WITH NO
SIGNIFICANT WEATHER AND/OR OBSTRUCTIONS TO VISIBILITY.

MTZ001>007-043-121600-
WEST OF THE DIVIDE

CITY           SKY/WX    TMP DP  RH WIND       PRES   REMARKS
KALISPELL      LGT RAIN  34  32  92 CALM      30.21S FOG
MISSOULA       CLOUDY    35  34  96 CALM      30.24S FOG
BUTTE          CLOUDY    33  31  92 CALM      30.24R
MULLAN PASS    LGT RAIN  35  34  96 S5        30.18R VSB 1/4
ANACONDA         N/A     36  34  93 CALM      30.21F
DEER LODGE       N/A     34  34 100 CALM      30.23F
HAMILTON         N/A     36  36 100 CALM      30.23R VSB 0
PLAINS           N/A     39  36  89 CALM      30.21F
$$

MTZ008-052>055-121600-
SOUTHWEST MONTANA

CITY           SKY/WX    TMP DP  RH WIND       PRES   REMARKS
BOZEMAN        CLOUDY    36  32  85 S5        30.25S
DILLON         CLOUDY    36  28  73 S10       30.25R WCI  28
ENNIS          CLEAR     34  30  86 VRB5G12   30.31R
TWIN BRIDGES     N/A     34  29  82 S5        30.21S
$$

MTZ009-010-012-014-046-048-049-054-121600-
EAST SLOPES AND CENTRAL MONTANA

CITY           SKY/WX    TMP DP  RH WIND       PRES   REMARKS
CUT BANK       CLOUDY    31  30  96 SE12      30.19S WCI  22
GREAT FALLS    CLOUDY    33  30  88 NE6       30.21S WCI  28
MALMSTROM AFB  LGT RAIN  31  31 100 NE8       30.23R WCI  24
HELENA         CLOUDY    35  32  88 CALM      30.23R
CHOTEAU          N/A     34  32  93 SE6       30.21F WCI  29
CONRAD           N/A     32  32 100 N2        30.20F
$$

MTZ011-013-016-021-045-047-050-051-121600-
NORTH CENTRAL MONTANA

CITY           SKY/WX    TMP DP  RH WIND       PRES   REMARKS
HAVRE          CLOUDY    29  27  92 E18       30.28F WCI  16
LEWISTOWN      CLOUDY    33  28  81 SE12      30.23S WCI  24
N BAR RANCH    FOG       28  28 100 CALM      30.28R VSB<1/4
CHINOOK          N/A     27  25  93 E16G25    30.33S WCI  14
$$

MTZ017>020-022>027-061-062-121600-
NORTHEAST MONTANA

CITY           SKY/WX    TMP DP  RH WIND       PRES   REMARKS
GLASGOW        CLOUDY    17  11  77 E21       30.44R WCI   0
JORDAN           N/A     25  24  96 E12       30.37R WCI  14
SIDNEY         CLOUDY    12   5  73 NE12      30.53R WCI  -2
WOLF POINT     CLOUDY    13   3  64 E16       30.52R WCI  -3
PLENTYWOOD       N/A      0  -9  65 NE6       30.52S WCI -12
POPLAR           N/A      7   1  78 NE12      30.53R WCI  -9
SCOBEY           N/A      5  -9  52 N8        30.43R WCI  -8
$$

MTZ028>42-056>058-121600-
SOUTHCENTRAL AND SOUTHEAST MONTANA

CITY           SKY/WX    TMP DP  RH WIND       PRES   REMARKS
BAKER          CLOUDY    21  15  78 E8        30.41R WCI  11
BILLINGS       CLOUDY    31  29  92 N9        30.29R WCI  23
LIVINGSTON     CLOUDY    36  31  82 CALM      30.24F
MILES CITY     CLOUDY    27  23  85 NE12      30.38R WCI  17
EKALAKA          N/A     26  21  81 SE5       30.29R
FORSYTH          N/A     32  28  86 E7        30.36R WCI  26
LAUREL           N/A     34  27  76 N3        30.24R
ROUNDUP          N/A     29  25  85 CALM      30.19R
$$

REGIONAL REPORTS...DAKOTAS

CITY           SKY/WX    TMP DP  RH WIND       PRES   REMARKS
WILLISTON      CLOUDY     2  -4  76 N6        30.56R WCI  -9
MINOT          PTCLDY     0 -11  59 N9        30.57R WCI -15
DICKINSON      LGT SNOW   6   1  80 NE12      30.45R WCI  -9
BEACH          CLOUDY    18  16  93 E7        30.47R WCI   8
CROSBY           N/A     -2  -8  78 N3        30.59R
TIOGA            N/A     -6  -9  84 NE6       30.58R WCI -18
WATFORD CITY     N/A      1  -2  85 E6        30.54R WCI -10
BISMARCK       CLOUDY     7  -2  66 VRB5      30.57R
GRAND FORKS    MOSUNNY   -4 -13  65 N20       30.61R WCI -27
FARGO          PTSUNNY    0  -9  65 N22       30.57R WCI -23
BUFFALO SD       N/A     22  20  92 NE9       30.34R WCI  12
RAPID CITY     CLOUDY    28  26  92 NE8       30.38R FOG     WCI  20
$$

REGIONAL REPORTS...WYOMING/IDAHO/WASHINGTON

CITY           SKY/WX    TMP DP  RH WIND       PRES   REMARKS
GILLETTE       CLOUDY    28  27  96 E3        30.32S
SHERIDAN       CLOUDY    32  28  85 CALM      30.30R
BUFFALO WY     CLOUDY    32  26  78 S5        30.30S
CODY           MOCLDY    30  19  64 CALM      30.26R
YELLOWSTONE LA   N/A     28  26  92 CALM      30.37R
IDAHO FALLS    CLOUDY    11   9  92 N6        30.36S FOG     WCI   1
SALMON         CLOUDY    19  18  93 CALM      30.35S
BOISE          CLEAR     30  28  92 CALM      30.34R
SPOKANE        CLOUDY    39  38  96 CALM      30.18S
$$

REGIONAL REPORTS...ALBERTA

CITY           SKY/WX    TMP DP  RH WIND       PRES   REMARKS
EDMONTON       CLOUDY    16  12  86 SE10      30.26F WCI   3
CALGARY        FOG       27  27 100 SE13      30.14F VSB 1/4 WCI  16
LETHBRIDGE     CLOUDY    30  30 100 E7        30.18F FOG     WCI  23
MEDICINE HAT   CLOUDY    23  21  93 E12G17    30.29S WCI  12
WATERTON GATE    N/A     28  27  93 E6          N/A  WCI  22
ONEFOUR          N/A     28  27  93 E16         N/A  WCI  17
$$

REGIONAL REPORTS...SASKATCHEWAN

CITY           SKY/WX    TMP DP  RH WIND       PRES   REMARKS
SWIFT CURRENT  CLOUDY     7   3  85 SE17G23   30.38S WCI -12
REGINA         PTCLDY     0  -4  85 E6        30.57R WCI -12
SASKATOON      PTCLDY    -2  -8  78 SE10      30.61R WCI -19
VAL MARIE        N/A     16  12  86 E10         N/A  WCI   3
ROCKGLEN         N/A      3  -2  78 E7          N/A  WCI  -9
$$



USA.gov is the U.S. government's official web portal to all federal, state and local government web resources and services.